Погода в Новых Ельцах

Россия / Тверская область     57°16′54″N   32°54′29″E
темп.,
°C
ветер,
м/с
пор.,
м/с
влажн.,
%
обл.,
%
осадки,
мм/ч
давл.,
гПа
погр.,
м
21 апреля, ср
ср2100:00+3в2588100 0.1 1014621
03:00+3св2394100 0.2 1012333
06:00+3ссз2698100 0.8 1008496
09:00+2ссз2499100 2.4 1006432
12:00+3зсз2697100 0.5 1005550
15:00+4з3788100 0.6 1005651
18:00+7з267083 0.1 10051003
21:00+4ююз279361 0.2 1006162
22 апреля, чт
чт2200:00+2ю31094100 0.1 1007215
03:00+3ю31291100 0.1 1007333
06:00+3ю4129396 0.2 1007381
09:00+8ююз487878 0.3 1008483
12:00+13юз465091 0.0 10091764
15:00+15ююз463482 0.0 10082494
18:00+14ю464267 0.0 10071870
21:00+9ююв41181100 0.2 1008450
23 апреля, пт
пт2300:00+7ю3109368 0.6 1007372
03:00+7зюз4792100 3.8 1008822
06:00+5ю3890100 0.9 1008346
09:00+6ююз5970100 1.0 10091254
12:00+7ююз5959100 0.1 10101723
15:00+9ююз5846100 0.1 10102046
18:00+9юз3749100 0.0 10111818
21:00+4юз2271100 0.0 101138
24 апреля, сб
сб2400:00+3юз2475100 0.0 101195
03:00+2зюз1378100 0.0 101074
06:00+2зсз2484100 0.0 1009165
09:00+4зсз2370100 0.0 1008660
12:00+5зсз3356100 0.0 10071385
15:00+7сз3446100 0.1 10061614
18:00+7сз3447100 0.1 10061569
21:00+3з3670100 0.3 1006182
25 апреля, вс
вс2500:00+1з3782100 0.0 1005222
03:000з31088100 0.0 1005349
06:000зюз41091100 0.0 1004505
09:00+1зюз5886100 0.2 1004724
12:00+4зюз5769100 0.2 10041206
15:00+5зюз5760100 0.8 10041430
18:00+4зюз4866100 0.7 10041219
21:00+2зюз3779100 0.8 1004418